Terug naar catalogus

STARLINK-37191

ActiefCommunicatieVLEO
NORAD 68334·PAYLOAD·🇺🇸 United States

Gelanceerd Mar 22, 2026 vanaf Cape Canaveral Space Force Station

Loading…

Volgende Passages (komende 24 uur)

TLE

VersSource: CelesTrak SupGP

Epoch: Sep 15, 2026, 03:45 UTC

1 68334C 26059P   26258.15673611 -.00012400  00000+0 -36690-3 0  2582
2 68334  53.1583 186.4386 0001571  81.5989 110.4735 15.34349098    19

Volg STARLINK-37191 in realtime met AllMySat

Download on the App Store